Regional Weather Roundup
Issued by NWS Green Bay, WI

Home | Current Version | Previous Version | Graphics & Text | Print | Product List | Glossary Off
Versions: 1 2 3 4 5 6 7 8 9 10 11 12 13 14 15 16 17 18 19 20 21 22 23 24 25 26 27 28 29 30 31 32 33 34 35 36 37 38 39 40 41 42 43 44 45 46 47 48 49 50

000
ASUS43 KGRB 020000
RWRGRB

NORTH-CENTRAL AND NORTHEAST WISCONSIN REGIONAL WEATHER ROUNDUP
NATIONAL WEATHER SERVICE GREEN BAY WI
700 PM CDT WED JUL 01 2015

WIZ005-009-010>012-018-019-020100-
NORTH CENTRAL WISCONSIN

CITY           SKY/WX    TMP DP  RH WIND       PRES   REMARKS
IRONWOOD       SUNNY     64  46  52 NE3       29.99S
MANITOWISH WTR NOT AVBL
ARBOR VITAE    NOT AVBL
EAGLE RIVER    NOT AVBL
LAND O LAKES   NOT AVBL
RHINELANDER    SUNNY     67  44  43 VRB5      30.01S
PHILLIPS       NOT AVBL
ANTIGO         NOT AVBL
TOMAHAWK       NOT AVBL
MERRILL        NOT AVBL
$$

WIZ013-073-020100-
NORTHEAST WISCONSIN

CITY           SKY/WX    TMP DP  RH WIND       PRES   REMARKS
IRON MOUNTAIN  SUNNY     67  43  41 NE7       29.98S
MARINETTE      SUNNY     64  45  48 E12       29.98S
$$

WIZ017-030-035>037-045-020100-
CENTRAL WISCONSIN

CITY           SKY/WX    TMP DP  RH WIND       PRES   REMARKS
MEDFORD        NOT AVBL
WAUSAU         SUNNY     71  41  33 NE6       29.96F
MOSINEE        SUNNY     70  45  40 N3        29.99S
MARSHFIELD     SUNNY     71  44  37 N5        29.98S
WISC RAPIDS    SUNNY     72  45  37 N6        29.98F
STEVENS POINT  NOT AVBL
WAUPACA        NOT AVBL
SHAWANO        NOT AVBL
CLINTONVILLE   NOT AVBL
$$

WIZ038-039-048-051-020100-
FOX VALLEY

CITY           SKY/WX    TMP DP  RH WIND       PRES   REMARKS
NWS GREEN BAY  SUNNY     68  52  56 NE10      29.97S
APPLETON       MOSUNNY   66  48  52 VRB3      29.98S
OSHKOSH        MOSUNNY   66  51  58 NE6       29.98R
FOND DU LAC    SUNNY     67  53  61 NE8       29.98S
$$

WIZ022-050-052-020100-
EAST CENTRAL WISCONSIN

CITY           SKY/WX    TMP DP  RH WIND       PRES   REMARKS
STURGEON BAY   SUNNY     61  48  63 E6        30.01R
MANITOWOC      NOT AVBL
SHEBOYGAN      MOSUNNY   63  52  67 E5        29.99S
$$

LMZ563-521-522-541>543-020100-
LAKESHORE

STATION/POSITION TIME  TEMP    WIND        PRES    VSBY  WAVE
                       AIR SEA DIR/SP/G                  HT/PER
                 (UTC) (F)     (DEG/KT/KT) (MB)    (MI)  (FT/S)
SHEBOYGAN LKSHOR 2300   54     130/  2/  2 1016.0R
KEWAUNEE LKSHORE 2300   57     160/  3/  5 1014.8F
ALGOMA MARINA    2340             CALM       N/A
NORTHPORT PIER   2300   63      20/ 10/ 14 1015.2S
N MID LAKE BUOY  2250   54 46  230/  4/  4 1015.4F         1/ 4
S GREEN BAY BUOY 2330   65 69   60/ 12/ 14 1016.4
SISTER BAY LKSHO 2314   64      20/ 11/ 14   N/A
CHAMBERS ISLAND  2300   63      30/ 11/ 14 1015.2F
MENOMINEE LKSHOR 2300   63      50/ 10/ 12 1015.8F
$$


USA.gov is the U.S. government's official web portal to all federal, state and local government web resources and services.